Location: Newark
(52.2090°N, 4.1550°W)
Time: 04:12:51
(UTC+00:00)

Transit 4A - All Passes

Search period start: 22 September 2019 00:00
Search period end: 02 October 2019 00:00
Orbit: 865 x 980 km, 66.8° (Epoch: 21 September)

Date Brightness Start Highest point End Pass type
(mag) Time Alt. Az. Time Alt. Az. Time Alt. Az.
22 Sep - 10:21:14 10° SSE 10:26:09 24° ESE 10:31:02 10° ENE daylight
22 Sep - 12:05:28 10° SW 12:11:52 87° NW 12:18:13 10° NE daylight
22 Sep - 13:53:27 10° W 13:59:04 32° NNW 14:04:37 10° NE daylight
22 Sep - 15:42:44 10° NW 15:47:24 21° N 15:51:59 10° NE daylight
22 Sep - 17:30:27 10° NW 17:35:48 29° NNE 17:41:01 10° E daylight
22 Sep - 19:16:57 10° NW 19:23:09 77° NE 19:29:07 10° SE visible
22 Sep - 21:04:01 10° NW 21:08:56 26° WSW 21:13:44 10° SSW visible
23 Sep - 10:29:40 10° S 10:35:15 33° ESE 10:40:46 10° NE daylight
23 Sep - 12:14:55 10° SW 12:21:17 68° NW 12:27:34 10° NE daylight
23 Sep - 14:03:25 10° W 14:08:46 27° NNW 14:14:02 10° NE daylight
23 Sep - 15:52:33 10° NW 15:57:14 21° N 16:01:48 10° NE daylight
23 Sep - 17:39:52 10° NW 17:45:29 34° NNE 17:50:55 10° E daylight
23 Sep - 19:26:20 10° NW 19:32:31 82° SW 19:38:27 10° SSE visible
23 Sep - 21:13:57 10° WNW 21:17:58 19° WSW 21:21:53 10° SSW visible
24 Sep - 10:38:24 10° S 10:44:24 45° ESE 10:50:21 10° NE daylight
24 Sep - 12:24:32 10° WSW 12:30:46 53° NW 12:36:55 10° NE daylight
24 Sep - 14:13:27 10° WNW 14:18:32 24° NNW 14:23:32 10° NE daylight
24 Sep - 16:02:17 10° NW 16:07:03 22° N 16:11:43 10° ENE daylight
24 Sep - 17:49:15 10° NW 17:55:06 41° NE 18:00:45 10° ESE daylight
24 Sep - 19:35:46 10° NW 19:41:48 61° WSW 19:47:38 10° SSE visible
24 Sep - 21:24:29 10° WNW 21:26:54 13° W 21:29:17 10° SW visible
25 Sep - 09:05:36 10° SE 09:08:26 13° E 09:11:16 10° ENE daylight
25 Sep - 10:47:21 10° SSW 10:53:38 60° ESE 10:59:49 10° NE daylight
25 Sep - 12:34:16 10° WSW 12:40:19 43° NW 12:46:16 10° NE daylight
25 Sep - 14:23:28 10° WNW 14:28:19 22° NNW 14:33:05 10° NE daylight
25 Sep - 16:11:54 10° NW 16:16:51 24° NNE 16:21:41 10° ENE daylight
25 Sep - 17:58:38 10° NW 18:04:39 51° NE 18:10:28 10° ESE daylight
25 Sep - 19:45:15 10° NW 19:51:01 44° WSW 19:56:35 10° S visible
26 Sep - 09:13:06 10° SSE 09:17:25 19° ESE 09:21:41 10° ENE daylight
26 Sep - 10:56:33 10° SSW 11:02:55 80° SE 11:09:14 10° NE daylight
26 Sep - 12:44:08 10° W 12:49:56 35° NNW 12:55:37 10° NE daylight
26 Sep - 14:33:26 10° NW 14:38:08 21° N 14:42:45 10° NE daylight
26 Sep - 16:21:25 10° NW 16:26:37 26° NNE 16:31:39 10° ENE daylight
26 Sep - 18:08:00 10° NW 18:14:09 65° NE 18:20:04 10° SE daylight
26 Sep - 19:54:50 10° NW 20:00:09 32° WSW 20:05:18 10° S visible
27 Sep - 09:21:16 10° SSE 09:26:27 27° ESE 09:31:35 10° NE daylight
27 Sep - 11:05:54 10° SW 11:12:17 80° NW 11:18:36 10° NE daylight
27 Sep - 12:54:04 10° W 12:59:36 30° NNW 13:05:01 10° NE daylight
27 Sep - 14:43:20 10° NW 14:47:58 21° N 14:52:31 10° NE daylight
27 Sep - 16:30:53 10° NW 16:36:19 30° NNE 16:41:36 10° E daylight
27 Sep - 18:17:22 10° NW 18:23:33 84° NE 18:29:30 10° SE daylight
27 Sep - 20:04:36 10° WNW 20:09:13 23° WSW 20:13:43 10° SSW visible
28 Sep - 09:29:49 10° S 09:35:34 37° ESE 09:41:15 10° NE daylight
28 Sep - 11:15:25 10° SW 11:21:43 62° NW 11:27:57 10° NE daylight
28 Sep - 13:04:05 10° WNW 13:09:19 26° NNW 13:14:27 10° NE daylight
28 Sep - 14:53:07 10° NW 14:57:48 21° N 15:02:22 10° NE daylight
28 Sep - 16:40:18 10° NW 16:45:59 36° NNE 16:51:28 10° E daylight
28 Sep - 18:26:46 10° NW 18:32:53 74° WSW 18:38:47 10° SSE visible
28 Sep - 20:14:41 10° WNW 20:18:12 16° WSW 20:21:40 10° SW visible
29 Sep - 07:59:25 10° ESE 07:59:46 10° E 08:00:08 10° E daylight
29 Sep - 09:38:38 10° S 09:44:45 50° ESE 09:50:47 10° NE daylight
29 Sep - 11:25:04 10° WSW 11:31:14 49° NW 11:37:18 10° NE daylight
29 Sep - 13:14:06 10° WNW 13:19:05 24° NNW 13:23:58 10° NE daylight
29 Sep - 15:02:48 10° NW 15:07:37 22° NNE 15:12:18 10° ENE daylight
29 Sep - 16:49:41 10° NW 16:55:34 44° NE 17:01:16 10° ESE daylight
29 Sep - 18:36:12 10° NW 18:42:09 54° WSW 18:47:53 10° SSE visible
29 Sep - 20:25:55 10° W 20:27:07 11° W 20:28:19 10° WSW visible
30 Sep - 08:05:13 10° SE 08:08:42 15° ESE 08:12:09 10° ENE daylight
30 Sep - 09:47:41 10° SSW 09:54:00 67° ESE 10:00:14 10° NE daylight
30 Sep - 11:34:51 10° WSW 11:40:48 40° NW 11:46:39 10° NE daylight
30 Sep - 13:24:07 10° WNW 13:28:53 22° N 13:33:34 10° NE daylight
30 Sep - 15:12:23 10° NW 15:17:24 24° NNE 15:22:17 10° ENE daylight
30 Sep - 16:59:03 10° NW 17:05:06 55° NE 17:10:57 10° ESE daylight
30 Sep - 18:45:44 10° NW 18:51:20 39° WSW 18:56:45 10° S visible
01 Oct - 08:13:02 10° SSE 08:17:42 22° ESE 08:22:19 10° ENE daylight
01 Oct - 09:56:56 10° SW 10:03:19 87° SE 10:09:38 10° NE daylight
01 Oct - 11:44:45 10° W 11:50:26 33° NNW 11:56:01 10° NE daylight
01 Oct - 13:34:04 10° NW 13:38:42 21° N 13:43:16 10° NE daylight
01 Oct - 15:21:54 10° NW 15:27:08 28° NNE 15:32:15 10° E daylight
01 Oct - 17:08:24 10° NW 17:14:33 72° NE 17:20:29 10° SE daylight
01 Oct - 18:55:22 10° NW 19:00:26 28° WSW 19:05:23 10° SSW visible
